Location: Chefe Valiua
(16.5342°S, 37.2214°E)
Time: 01:48:02
(UTC+00:00)

CZ-2C R/B - Pass Details

Date: 19 January 2021
Orbit: 641 x 703 km, 98.3° (Epoch: 07 March)

Event Time Altitude Azimuth Distance (km) Brightness Sun altitude
Exits shadow 17:29:58 24° 17° (NNE) 1,426 5.0 -18.1°
Maximum altitude 17:32:51 81° 103° (ESE) 707 3.7 -18.7°
Drops below altitude 10° 17:37:37 10° 189° (S) 2,174 6.9 -19.7°
Sets 17:39:54 0° 190° (S) 3,102 7.7 -20.2°
